St. Johns, AZ

8:46 AM MST on July 20, 2017 (GMT -0700)
Saint Johns Industrial

Weather History for KSJN - September, 2013

Change the Weather History Date:

Thursday, September 5, 2013

  Actual Average (KLSB) Record (KLSB)
Temperature  
Mean Temperature 68 °F -  
Max Temperature 86 °F 90 °F 91 °F (2013)
Min Temperature 50 °F 58 °F 62 °F (2015)
Cooling Degree Days 3    
Growing Degree Days 18 (Base 50)    
Moisture  
Dew Point 44 °F    
Average Humidity 43    
Maximum Humidity 90    
Minimum Humidity 15    
Precipitation  
Precipitation 0.00 in - - ()
Sea Level Pressure  
Sea Level Pressure 30.00 in    
Wind  
Wind Speed 4 mph (SE)    
Max Wind Speed 12 mph    
Max Gust Speed 20 mph    
Visibility 10 miles    
Events      
Averages and records for this station are not official NWS values.
T = Trace of Precipitation, MM = Missing Value Source: NWS Daily Summary

Daily Weather History Graph

Daily Weather History Graph

Search for Another Location

Airport or City:

Trip Planner

Search our weather history database for the weather conditions in past years. The results will help you decide how hot, cold, wet, or windy it might be!

Date:

Astronomy

Sep. 05, 2013 Rise Set
Actual Time 5:53 AM MST 6:37 PM MST
Civil Twilight 5:28 AM MST 7:03 PM MST
Nautical Twilight 4:58 AM MST 7:33 PM MST
Astronomical Twilight 4:27 AM MST 8:04 PM MST
Moon 6:05 AM MST (9/5) 6:35 PM MST (9/5)
Length of Visible Light 13h 35m
Length of Day
12h 44m
New Moon, 0% of the Moon is Illuminated
Sep 5
New Moon
Sep 12
First Quarter
Sep 19
Full
Sep 26
Last Quarter
Oct 4
New

Hourly Weather History & Observations

Time (MST) Temp. Dew Point Humidity Pressure Visibility Wind Dir Wind Speed Gust Speed Precip Events Conditions
12:54 AM 64.9 °F 53.1 °F 65% 29.99 in 10.0 mi SSE 4.6 mph - N/A   Clear
1:54 AM 64.9 °F 52.0 °F 63% 29.98 in 10.0 mi SSE 6.9 mph - N/A   Clear
2:54 AM 62.1 °F 51.1 °F 67% 29.98 in 10.0 mi Calm Calm - N/A   Clear
3:54 AM 59.0 °F 50.0 °F 72% 30.00 in 10.0 mi Calm Calm - N/A   Mostly Cloudy
4:54 AM 57.0 °F 50.0 °F 77% 30.01 in 10.0 mi WNW 3.5 mph - N/A   Mostly Cloudy
5:54 AM 55.9 °F 50.0 °F 80% 30.04 in 10.0 mi Calm Calm - N/A   Scattered Clouds
6:54 AM 61.0 °F 51.1 °F 70% 30.06 in 10.0 mi Calm Calm - N/A   Clear
7:54 AM 66.0 °F 52.0 °F 60% 30.06 in 10.0 mi Calm Calm - N/A   Partly Cloudy
8:54 AM 73.0 °F 48.0 °F 41% 30.05 in 10.0 mi Calm Calm - N/A   Clear
9:54 AM 80.1 °F 43.0 °F 27% 30.03 in 10.0 mi SE 3.5 mph - N/A   Clear
10:54 AM 82.9 °F 43.0 °F 24% 30.01 in 10.0 mi Calm Calm - N/A   Partly Cloudy
11:54 AM 86.0 °F 39.0 °F 19% 29.99 in 10.0 mi East 11.5 mph 19.6 mph N/A   Partly Cloudy
12:54 PM 88.0 °F 37.0 °F 16% 29.97 in 10.0 mi SE 5.8 mph 19.6 mph N/A   Partly Cloudy
1:54 PM 86.0 °F 37.0 °F 18% 29.95 in 10.0 mi SE 6.9 mph - N/A   Scattered Clouds
2:54 PM 87.1 °F 35.1 °F 16% 29.94 in 10.0 mi Variable 3.5 mph - N/A   Mostly Cloudy
3:54 PM 86.0 °F 36.0 °F 17% 29.94 in 10.0 mi South 8.1 mph - N/A   Clear
4:54 PM 86.0 °F 33.1 °F 15% 29.93 in 10.0 mi South 9.2 mph - N/A   Clear
5:54 PM 86.0 °F 34.0 °F 16% 29.93 in 10.0 mi East 5.8 mph - N/A   Clear
6:54 PM 81.0 °F 33.1 °F 18% 29.93 in 10.0 mi ESE 4.6 mph - N/A   Clear
7:54 PM 73.9 °F 37.9 °F 27% 29.95 in 10.0 mi Calm Calm - N/A   Clear
8:54 PM 71.1 °F 43.0 °F 36% 29.96 in 10.0 mi South 8.1 mph - N/A   Clear
9:54 PM 70.0 °F 46.9 °F 44% 29.96 in 10.0 mi SSE 5.8 mph - N/A   Clear
10:54 PM 69.1 °F 48.0 °F 47% 29.97 in 10.0 mi Calm Calm - N/A   Mostly Cloudy
11:54 PM 66.0 °F 48.0 °F 52% 29.98 in 10.0 mi ESE 3.5 mph - N/A   Scattered Clouds